Regional Weather Roundup
Issued by NWS Jackson, KY

Home | Current Version | Previous Version | Text Only | Print | Product List | Glossary On
Versions: 1 2 3 4 5 6 7 8 9 10 11 12 13 14 15 16 17 18 19 20 21 22 23 24 25 26 27 28 29 30 31 32 33 34 35 36 37 38 39 40 41 42 43 44 45 46 47 48 49
000
ASUS43 KJKL 041510
RWRJKL

EAST KENTUCKY HOURLY WEATHER ROUNDUP
NATIONAL WEATHER SERVICE JACKSON KY
1100 AM EDT FRI SEP 04 2015

NOTE: "FAIR" INDICATES FEW OR NO CLOUDS BELOW 12,000 FEET WITH
NO SIGNIFICANT WEATHER AND/OR OBSTRUCTIONS TO VISIBILITY.

* THESE REPORTS ARE NOT UNDER NWS QUALITY CONTROL AND MAY NOT
  REPORT WEATHER SUCH AS PRECIPITATION AND FOG.

KYZ079-080-083-085-087-088-110-112-115-119-120-041600
...EASTERN KENTUCKY...

CITY           SKY/WX    TMP DP  RH WIND       PRES   REMARKS
JACKSON        SUNNY     80  70  71 CALM      30.10R
LONDON         SUNNY     83  66  56 VRB3      30.09S
SOMERSET*      SUNNY     79  68  69 CALM      30.10R
MONTICELLO*    SUNNY     83  72  69 CALM      30.11R
MIDDLESBORO*   PTSUNNY   70  68  92 CALM      30.11S
HARLAN APT*      N/A     73  64  73 MISG      30.12R
HAZARD APT*    SUNNY     81  70  69 CALM      30.10R
BLACK MTN*       N/A     73  64  73 N6          N/A
PIKEVILLE APT* SUNNY     77  70  78 CALM      30.11S
BIG SANDY*     SUNNY     79  71  77 CALM      30.10S
MOREHEAD APT*  SUNNY     82  70  65 CALM      30.09S
$$

KYZ035-036-041-042-044-050-067-078-099-041600
...CENTRAL KENTUCKY...

CITY           SKY/WX    TMP DP  RH WIND       PRES   REMARKS
MT STERLING*   SUNNY     82  72  69 CALM      30.09R
FLEMING/MASON* SUNNY     82  70  65 CALM      30.09R
DANVILLE*      SUNNY     82  66  57 CALM      30.09S
RICHMOND*      SUNNY     82  66  57 CALM      30.08R
LEXINGTON      SUNNY     86  67  52 VRB3      30.08R
FRANKFORT      SUNNY     85  66  53 N3        30.06R
$$

KYZ091>093-OHZ055-061-077-WVZ005-015-034-035-042-041600
...SOUTHERN OHIO/WEST VIRGINIA...

CITY           SKY/WX    TMP DP  RH WIND       PRES   REMARKS
COVINGTON      MOSUNNY   85  67  54 SW7       30.06R
COLUMBUS       CLOUDY    73  66  78 SE7       30.08R
DAYTON         MOSUNNY   83  69  62 S5        30.07R
WILMINGTON     SUNNY     81  69  67 S6        30.07R
HUNTINGTON     SUNNY     79  68  69 VRB5      30.08R
CHARLESTON     MOSUNNY   77  67  71 NE8       30.10R
PINEVILLE*     SUNNY     78  71  80 MISG      30.17S
BECKLEY        SUNNY     76  64  66 NE9       30.16R
BLUEFIELD      SUNNY     80  64  58 NE5       30.18R
$$

VAZ002-007-008-TNZ017-027-036-066-071-041600
...SOUTHWEST VIRGINIA/EAST TENNESSEE...

CITY           SKY/WX    TMP DP  RH WIND       PRES   REMARKS
WISE*          SUNNY     77  63  61 N7        30.18R
JONESVILLE*    SUNNY     81  68  65 CALM      30.13R
ABINGDON*      SUNNY     80  65  58 E6        30.14R
BRISTOL        SUNNY     78  68  71 VRB3      30.11R
KNOXVILLE      SUNNY     81  68  64 E5        30.07R
OAK RIDGE      SUNNY     83  67  58 E7        30.08R
CROSSVILLE     SUNNY     81  66  60 E3        30.13R
NASHVILLE      SUNNY     86  67  52 E3        30.06S
$$

...KEY TO REMARKS...
VSB - VISIBILITY IN MILES
WCI - WIND CHILL INDEX
HX  - HEAT INDEX

$$


USA.gov is the U.S. government's official web portal to all federal, state and local government web resources and services.